Location: Tauranga
(37.6860°S, 176.1670°E)
Time: 06:17:20
(UTC+12:00)

Daily predictions for brighter satellites

Satellite Brightness Start Highest point End
(mag) Time Altitude Azimuth Time Altitude Azimuth Time Altitude Azimuth
COSMO-SKYMED 1 4.1 17:59:38 10° N 18:03:48 43° W 18:08:00 10° SSW
CZ-4B DEB 4.3 17:58:50 10° SSE 18:04:27 85° ENE 18:09:58 10° NNW
MOS 1-B 4.4 18:00:05 10° SSE 18:06:00 84° ENE 18:11:49 10° NNW
USA 267 4.4 17:59:44 10° NNE 18:06:03 49° NW 18:12:24 10° SW
Atlas Centaur 2 3.8 18:04:32 10° WNW 18:07:27 17° NNW 18:10:04 10° NNE
Okean O Rocket 1.8 18:05:51 10° SSE 18:10:11 52° E 18:14:26 10° N
Cosmos 2082 Rocket 2.7 18:04:45 10° SSW 18:10:29 70° WNW 18:16:10 10° N
CZ-4B R/B 3.2 18:07:03 10° SSE 18:12:27 58° ENE 18:17:42 10° N
Cosmos 1452 Rocket 3.8 18:09:00 10° N 18:14:02 48° ENE 18:19:09 10° SSE
CENTAUR R/B 3.1 18:10:21 10° SW 18:15:43 51° WNW 18:20:42 10° NNE
Helios 1A Rocket 4.5 18:13:44 10° SE 18:16:23 16° E 18:19:00 10° NE
ASTRO E2 4.5 18:14:05 10° NW 18:17:11 21° NNE 18:20:17 10° ENE
MOS 1 Rocket 3.9 18:13:59 10° NE 18:18:11 33° ESE 18:22:14 10° S
Cosmos 1862 4.1 18:15:17 10° SSE 18:18:52 29° ESE 18:22:27 10° NE
PAYLOAD B 4.5 18:17:11 10° SSE 18:22:52 80° WSW 18:28:27 10° NNW
SEDSat Delta rocket 4.4 18:20:22 10° NW 18:23:41 23° NNE 18:26:59 10° ENE
Cosmos 1633 3.2 18:21:45 10° SSW 18:25:22 59° W 18:28:54 10° N
Nadezhda 3 Rocket 4.5 18:21:11 10° NNE 18:26:46 37° E 18:32:27 10° SSE
GPS 2-04 Rocket1 3.8 18:24:42 10° NW 18:28:13 31° NNE 18:31:00 14° ENE
Envisat 3.0 18:25:20 10° SSE 18:30:31 86° ENE 18:35:38 10° NNW
CORIOLIS 4.3 18:25:24 10° SSE 18:30:46 56° E 18:36:06 10° N
Cosmos 1441 Rocket 3.5 18:27:12 10° S 18:31:05 46° ESE 18:34:53 10° NNE
BREEZE-M DEB (TANK) 3.0 18:32:17 10° WSW 18:34:23 38° NW 18:38:02 10° NE
Lacrosse 5 rocket 3.9 18:36:09 10° SW 18:36:49 10° SSW 18:37:28 10° SSW
AQUARIUS 4.1 18:32:27 10° SSE 18:37:02 76° ENE 18:41:33 10° N
BREEZE M DEB (TANK) 3.2 18:36:05 10° SSW 18:37:14 15° S 18:38:00 13° SE
Cosmos 1656 Rocket 4.5 18:33:45 10° NNE 18:38:37 30° ENE 18:43:33 10° SE
Cosmos 676 Rocket 4.0 18:33:52 10° SSW 18:39:11 88° WNW 18:44:28 10° NNE
Cosmos 1821 Rocket 4.4 18:34:38 10° S 18:40:23 39° ESE 18:46:02 10° NE
Cosmos 332 Rocket 4.1 18:35:59 10° NNW 18:40:54 75° WSW 18:45:53 10° SSE
Cosmos 1606 3.7 18:37:49 10° NE 18:40:56 24° E 18:43:19 14° SE
Lacrosse 4 Rocket 2.7 18:40:11 10° S 18:43:56 25° SE 18:45:24 21° E
Cosmos 1151 Rocket 4.2 18:42:03 10° NE 18:45:27 22° E 18:46:29 20° ESE
Cosmos 2366 rocket 4.3 18:40:18 10° S 18:46:43 74° W 18:53:01 10° N
CZ-2C R/B 3.0 18:41:54 10° NE 18:47:05 44° ESE 18:52:24 10° S
Sich 1 3.4 18:44:26 10° S 18:48:39 41° E 18:52:51 10° NNE
Aureole 1 Rocket 3.7 18:48:43 10° SSW 18:52:24 54° WNW 18:57:05 10° N
Iridium 2 4.5 18:49:42 10° NNE 18:53:00 29° E 18:53:33 27° ESE
Milstar 3 Cent rocket 3.4 18:49:31 10° WNW 18:55:16 32° N 18:58:41 15° NE
Cosmos 2369 Rocket 2.2 18:51:18 10° NNW 18:57:02 88° ENE 19:02:50 10° SSE
IRS-1C Rocket 4.1 18:55:23 10° SSE 19:00:40 57° E 19:05:53 10° N
Cosmos 1943 Rocket 2.9 18:58:20 10° NW 19:03:43 53° WSW 19:09:09 10° SSE
CZ-4 R/B 3.3 19:07:53 15° NNE 19:07:53 15° NNE 19:08:48 10° NNE
Cosmos 1110 Rocket 3.9 19:04:23 10° N 19:09:32 62° ENE 19:14:23 12° SSE
FengYun 1-2 T 4.2 19:06:39 10° SSE 19:12:20 90° E 19:17:53 10° NNW
Cosmos 2263 4.1 19:08:45 10° NNW 19:14:28 87° ENE 19:20:12 10° SSE
SL-27 R/B 3.6 19:11:08 10° S 19:13:18 30° SSE 19:13:18 30° SSE
Cosmos 1741 Rocket 3.9 19:09:34 10° SSW 19:14:51 69° ESE 19:20:04 10° NNE
CZ-4 R/B 4.3 19:18:43 24° SSE 19:21:13 67° E 19:25:23 10° N
CZ-4C R/B 3.3 19:18:24 10° NW 19:26:39 65° SW 19:33:45 10° SSE
Cosmos 1666 Rocket 3.4 19:23:11 10° S 19:27:38 76° E 19:30:12 24° NNE
IRIDIUM 106 4.3 19:22:41 10° S 19:27:57 62° E 19:33:08 10° NNE
H-2A R/B 3.9 19:24:49 10° WNW 19:30:26 65° N 19:41:40 30° E
DELTA 2 R/B (1) 3.6 19:25:45 10° W 19:31:21 73° S 19:32:42 51° ESE
ATLAS 3B R/B 3.7 19:29:00 10° SW 19:35:44 45° WNW 19:42:11 10° N
Cosmos 1939 Rocket 3.0 19:35:32 33° S 19:37:11 70° WSW 19:41:03 10° NNW
Okean-O 2.6 19:39:16 33° S 19:41:16 82° WSW 19:45:42 10° NNW
Cosmos 1933 3.9 19:44:02 10° NNW 19:47:31 56° NW 19:47:31 56° NW
Helios 1A Rocket 4.5 19:47:49 10° S 19:51:38 35° WSW 19:55:22 10° NW
CZ-2C R/B 3.9 19:53:38 68° W 19:53:38 68° W 19:57:57 10° SSW
Cosmos 1633 Rocket 3.5 19:50:22 10° SSW 19:54:34 62° WSW 19:54:34 62° WSW
Cosmos 1833 4.2 19:53:01 10° SSW 19:58:09 69° S 19:58:09 69° S
Cosmos 1934 Rocket 4.0 19:53:52 10° S 20:00:10 81° W 20:06:30 10° N
Cosmos 1328 Rocket 4.4 19:58:01 10° NNW 20:02:21 50° W 20:02:29 50° WSW
Meteor 1-25 Rocket 4.3 19:59:42 10° S 20:04:46 71° SSW 20:04:46 71° SSW
Cosmos 1339 Rocket 4.4 20:01:47 10° N 20:07:55 84° W 20:14:06 10° S
Lacrosse 4 Rocket 3.4 20:18:36 10° SW 20:21:48 29° W 20:21:48 29° W
BREEZE-M DEB (TANK) 4.3 20:23:36 10° NW 20:39:26 64° NNW 20:39:26 64° NNW
